Back to catalog

STARLINK-4769

AliveCommunicationsVLEO
NORAD 53843·PAYLOAD·🇺🇸 United States

Launched Sep 19, 2022 from Cape Canaveral Space Force Station

Loading…

Next Passes (next 24 hours)

TLE

FreshSource: CelesTrak SupGP

Epoch: Sep 14, 2026, 20:34 UTC

1 53843C 22114AB  26257.85743056 -.00021661  00000+0 -13583-2 0  2579
2 53843  53.1589 164.3740 0001535  90.6781  75.4654 15.08848630    11

Track STARLINK-4769 in real time with AllMySat

Download on the App Store